Wind_Speed
5 4 4 3 3 3 3 4 4 4 4 4 3 3 2 3 3 3 2 2 2 2 2 2 2 2 2 2 2 2 2 2 2 2 2 2 2 3 3 3 4 5 6
4 4 4 3 3 3 4 4 4 4 4 4 4 3 3 2 3 3 3 3 2 2 2 2 2 1 2 2 2 2 2 2 2 2 2 2 2 3 3 4 4 4 5
4 4 4 3 3 3 3 4 4 3 4 4 3 4 3 3 3 3 3 3 3 3 2 2 2 2 2 2 2 3 3 2 2 2 2 2 3 3 4 4 5 5 5
4 4 4 4 4 3 3 3 3 3 3 3 4 4 3 4 4 3 3 2 2 3 2 2 2 2 3 3 3 3 4 3 3 3 3 3 3 3 3 4 5 5 5
5 4 4 4 4 4 3 3 3 3 3 3 3 4 4 4 4 4 4 3 3 3 3 3 3 3 4 4 4 4 4 4 4 4 4 4 4 4 4 4 5 5 6
5 5 5 5 5 5 4 3 3 3 3 3 3 3 3 3 3 3 4 4 4 3 4 4 4 4 5 4 4 4 5 4 4 4 4 5 5 5 5 5 6 6 7
6 6 6 6 5 5 4 4 3 3 3 3 3 3 2 2 2 2 3 4 4 3 3 4 4 5 5 4 4 5 5 5 5 5 6 6 6 6 6 7 7 7 8
6 6 6 6 6 5 4 4 4 4 3 3 3 3 3 3 2 3 3 3 3 3 3 3 4 4 4 4 4 5 5 5 6 6 6 7 7 7 7 8 8 9 9
8 8 7 7 7 6 5 5 5 4 4 4 4 4 3 3 2 3 3 3 4 3 3 3 3 4 4 4 5 6 5 5 6 6 7 7 7 7 7 8 9 9 9
9 9 8 7 7 7 7 7 6 5 5 5 5 5 4 3 3 2 3 4 4 4 4 4 4 4 5 5 6 6 6 6 6 7 7 7 8 9 8 9 9 10 10
8 8 8 8 8 8 7 7 6 6 5 5 5 5 5 4 3 3 4 4 4 4 5 5 5 5 6 7 7 7 7 7 8 8 8 9 9 10 9 10 11 12 13
7 8 8 9 9 8 8 8 7 6 6 5 6 6 6 6 5 4 4 5 5 5 6 6 6 6 6 7 8 8 8 8 9 9 10 10 10 11 11 12 13 13 14
8 8 9 9 8 8 8 8 7 7 7 6 6 7 7 7 7 6 6 6 6 6 6 7 7 8 8 8 8 9 9 9 10 10 11 11 12 13 14 15 15 15 16
9 9 9 8 8 8 9 9 8 8 8 8 7 7 7 8 9 9 8 8 8 7 8 8 8 9 10 10 10 10 10 10 11 12 12 13 14 15 15 16 16 17 17
9 9 9 8 9 9 9 9 9 9 10 9 9 8 8 8 9 9 9 9 9 10 10 10 10 11 11 12 12 12 12 13 13 13 14 14 15 16 16 17 17 18 18
10 10 10 10 10 10 10 10 10 10 10 10 10 9 9 10 10 10 10 11 11 11 12 12 12 12 12 13 13 13 14 14 14 15 15 15 16 17 17 18 19 19 20
11 11 11 11 11 11 11 11 11 12 12 11 11 10 11 11 11 11 11 12 12 11 12 13 13 14 14 14 14 15 15 15 15 16 16 16 17 17 18 19 20 20 21
13 13 13 13 13 12 12 12 12 12 12 12 12 12 12 12 12 12 13 13 13 13 13 13 13 14 15 15 16 16 17 17 17 17 17 17 18 19 20 21 21 22 23
14 14 14 14 13 13 13 14 14 13 13 13 14 14 14 13 14 14 14 14 14 15 15 14 14 15 16 17 18 18 18 18 19 19 19 20 21 21 21 22 23 24 25
16 15 15 15 15 14 14 14 14 14 14 14 14 14 14 14 15 15 15 16 16 16 16 16 16 17 17 18 18 18 19 19 19 20 20 21 21 22 23 24 24 25 26
17 16 16 15 15 15 15 15 15 15 15 15 15 14 15 15 16 16 17 17 17 17 17 17 17 17 18 18 19 20 20 20 20 20 20 21 22 22 23 24 25 25 26
19 18 17 17 16 16 16 16 16 15 15 16 17 16 16 16 17 17 17 18 18 18 18 18 19 19 19 20 20 20 20 20 20 20 21 22 23 23 24 25 25 26 26
21 20 20 19 19 19 18 17 17 17 16 17 17 17 17 18 18 18 18 19 18 18 19 19 20 20 20 20 19 19 20 21 21 21 22 23 24 24 25 25 26 27 28
22 21 21 21 20 20 20 19 20 19 19 18 18 19 19 18 19 19 19 19 19 19 19 20 20 20 20 20 19 20 21 21 22 22 23 24 25 25 25 26 27 28 29
22 23 23 23 23 22 22 22 22 22 21 21 21 20 19 19 19 19 19 19 19 19 20 20 20 20 20 20 20 22 22 23 24 24 24 25 26 26 27 27 28 29 30
23 23 24 24 24 24 23 23 23 23 23 23 22 21 21 21 20 20 20 20 19 20 20 21 21 21 22 22 23 23 24 25 25 26 26 27 27 28 28 28 29 30 31
Wind_Direction
286 288 283 284 288 290 288 287 282 270 270 275 286 287 286 271 271 281 278 283 307 318 328 320 309 321 340 345 345 339 333 325 306 293 293 287 273 258 264 260 254 252 258
273 275 277 285 288 293 287 284 279 266 265 270 271 271 277 276 269 269 264 256 279 313 322 314 318 325 340 339 343 348 339 326 320 313 311 301 294 283 277 267 268 270 273
279 273 275 281 285 288 284 278 279 266 256 257 265 268 259 266 271 256 245 254 258 272 297 317 319 304 310 314 330 341 345 337 326 308 300 308 303 299 289 282 280 285 289
280 278 275 273 277 281 283 275 274 270 253 254 261 265 263 263 260 251 244 251 254 265 281 312 308 291 291 299 312 326 329 330 328 323 312 305 306 297 288 284 287 294 297
282 282 276 268 267 273 284 276 271 269 255 252 256 263 265 269 252 243 243 251 251 253 264 280 292 287 283 291 300 308 312 316 320 320 319 318 316 310 304 294 293 295 296
282 286 277 267 266 269 277 277 276 272 269 255 252 260 266 263 250 245 245 247 249 253 261 270 278 280 281 287 292 302 309 312 314 316 316 315 316 314 307 300 299 299 299
278 285 281 267 264 265 265 267 273 272 272 260 253 241 241 246 243 247 249 248 248 255 269 274 277 284 282 281 287 292 301 308 309 310 309 309 309 309 305 301 299 298 299
277 279 280 272 264 262 262 264 268 273 261 242 251 251 254 248 246 254 254 248 249 261 277 282 275 281 284 285 291 296 300 304 307 310 310 309 309 308 305 302 299 298 299
281 276 275 271 266 262 262 267 268 266 258 257 260 269 272 259 250 257 258 262 258 261 287 296 284 282 290 298 301 304 302 306 310 310 311 315 314 312 309 308 305 302 300
282 277 273 268 267 265 266 269 266 260 261 260 263 262 265 262 257 256 264 276 268 267 283 288 287 291 297 301 304 310 312 309 310 311 310 309 312 312 308 307 305 303 302
277 279 275 271 268 269 271 263 259 259 262 259 263 256 250 255 255 260 272 280 280 278 287 284 281 287 292 296 301 305 304 304 305 306 304 304 304 307 305 305 303 303 301
281 281 279 275 268 265 268 259 258 259 258 263 265 259 249 256 256 262 272 279 282 283 284 288 288 288 291 293 296 297 297 299 301 300 298 298 301 304 304 304 304 303 304
279 277 274 272 265 261 261 259 255 255 255 261 266 261 251 255 260 265 269 276 281 285 285 284 285 289 292 294 298 296 295 295 298 298 297 298 301 302 302 301 301 302 303
277 276 276 272 264 261 260 261 253 253 254 257 263 262 257 258 264 269 268 273 278 282 283 283 283 287 290 293 296 297 297 296 296 297 298 300 301 301 301 301 301 301 302
278 277 275 275 268 263 261 260 255 253 255 258 261 262 261 261 266 271 272 277 279 279 279 281 282 284 286 290 293 295 295 295 295 296 298 299 301 302 302 302 302 303 303
279 275 272 268 264 261 260 259 257 256 255 257 259 260 263 264 266 270 272 274 279 279 277 279 282 283 286 290 292 294 296 296 295 296 298 297 299 302 302 303 304 304 303
275 272 269 264 262 258 257 260 259 257 254 253 255 259 263 267 269 269 271 272 275 278 278 280 281 282 284 287 289 293 294 294 294 296 297 298 301 302 304 304 304 304 304
272 271 270 266 263 260 258 259 260 257 253 252 254 258 263 268 271 273 274 276 277 278 280 280 279 280 284 288 291 293 293 292 293 294 295 297 298 300 301 302 302 303 303
272 270 268 265 265 264 261 261 260 258 257 257 259 262 266 269 272 274 276 277 279 279 278 279 279 281 285 289 292 293 292 292 292 293 295 296 296 298 299 301 302 303 302
273 269 269 265 262 263 263 262 261 261 261 262 264 265 266 269 272 273 275 277 278 278 277 277 279 281 285 288 289 291 293 295 295 294 296 297 298 299 300 302 303 303 302
273 269 267 266 263 263 263 263 262 262 264 264 264 267 269 271 273 274 275 276 277 277 276 278 279 282 285 287 288 290 292 292 292 293 295 297 299 300 301 303 304 305 305
270 268 265 264 261 260 261 262 262 263 266 266 265 267 270 272 275 276 277 276 276 276 278 280 280 284 285 286 288 290 291 291 292 293 295 297 298 299 302 303 304 305 306
268 266 263 262 263 261 259 259 262 265 266 267 267 269 272 274 275 276 276 277 277 277 279 281 282 284 284 285 287 290 292 293 294 295 296 298 299 299 301 302 304 306 306
269 265 262 260 260 260 258 258 261 263 267 268 269 271 273 274 274 274 276 277 277 277 278 281 284 285 285 284 286 288 290 293 294 295 296 298 299 300 301 302 303 305 306
269 265 262 260 258 258 258 259 260 262 265 267 266 269 271 273 274 275 277 277 276 276 278 279 282 285 286 285 286 288 289 291 293 294 295 297 299 300 301 301 302 303 304
267 266 262 260 258 258 259 260 260 263 266 266 264 265 269 272 274 275 275 276 277 278 279 279 281 284 284 284 286 288 289 291 292 293 295 296 298 300 300 301 302 303 304
Height
5864 5864 5863 5863 5863 5862 5862 5862 5862 5862 5861 5861 5861 5861 5861 5861 5862 5861 5861 5861 5861 5860 5860 5860 5859 5859 5859 5858 5858 5857 5857 5856 5856 5856 5855 5855 5855 5854 5854 5854 5854 5855 5855
5863 5863 5863 5862 5862 5861 5861 5861 5861 5860 5860 5861 5861 5861 5861 5861 5861 5861 5861 5861 5860 5860 5860 5860 5859 5859 5859 5858 5858 5858 5857 5856 5856 5855 5855 5855 5855 5854 5854 5854 5854 5853 5853
5862 5862 5862 5861 5861 5860 5860 5860 5859 5859 5859 5860 5860 5860 5860 5860 5860 5860 5860 5860 5860 5860 5860 5859 5859 5859 5859 5858 5858 5857 5857 5856 5855 5855 5855 5854 5854 5854 5854 5853 5853 5852 5852
5861 5861 5861 5860 5860 5859 5859 5858 5858 5858 5858 5859 5859 5859 5859 5859 5859 5859 5859 5859 5859 5859 5859 5859 5859 5858 5858 5858 5858 5857 5857 5856 5855 5854 5854 5854 5854 5853 5853 5853 5852 5852 5851
5860 5860 5859 5859 5859 5858 5858 5858 5858 5858 5858 5858 5858 5858 5858 5858 5858 5858 5859 5858 5858 5858 5858 5858 5858 5858 5858 5858 5857 5857 5856 5856 5855 5854 5854 5853 5853 5853 5852 5852 5851 5851 5850
5859 5858 5858 5858 5857 5857 5857 5857 5857 5857 5857 5857 5857 5857 5857 5857 5857 5857 5857 5857 5857 5857 5857 5857 5857 5857 5857 5857 5856 5856 5856 5855 5854 5854 5853 5853 5852 5852 5851 5850 5850 5849 5849
5857 5857 5856 5856 5856 5856 5856 5856 5856 5856 5856 5856 5856 5856 5856 5856 5856 5856 5856 5856 5856 5856 5856 5856 5856 5856 5856 5856 5855 5855 5855 5854 5854 5853 5852 5852 5851 5850 5850 5849 5848 5848 5847
5856 5855 5855 5854 5855 5855 5855 5854 5855 5855 5855 5855 5855 5855 5855 5855 5855 5856 5856 5855 5855 5855 5855 5855 5855 5855 5855 5855 5854 5854 5854 5853 5853 5852 5851 5851 5850 5849 5848 5848 5847 5846 5845
5854 5854 5853 5853 5853 5853 5853 5853 5853 5853 5853 5854 5854 5854 5854 5854 5854 5854 5854 5855 5854 5854 5854 5854 5854 5854 5854 5854 5853 5853 5853 5852 5852 5851 5850 5849 5848 5848 5847 5846 5845 5844 5843
5852 5852 5851 5851 5851 5851 5851 5851 5852 5852 5852 5852 5852 5853 5853 5853 5854 5854 5854 5854 5854 5853 5853 5853 5853 5853 5853 5853 5852 5852 5852 5851 5850 5850 5849 5848 5847 5846 5845 5844 5843 5842 5841
5850 5850 5849 5849 5849 5849 5849 5850 5850 5850 5850 5851 5851 5851 5852 5852 5853 5853 5853 5853 5853 5853 5853 5852 5852 5852 5852 5852 5851 5851 5850 5850 5849 5848 5847 5847 5845 5844 5843 5842 5840 5839 5838
5848 5848 5847 5847 5847 5847 5847 5848 5848 5849 5849 5849 5850 5850 5850 5851 5851 5851 5852 5852 5851 5851 5851 5851 5851 5851 5851 5850 5850 5849 5848 5848 5847 5846 5845 5844 5843 5842 5841 5839 5838 5836 5835
5845 5845 5845 5845 5844 5845 5846 5846 5846 5846 5847 5847 5848 5848 5849 5849 5850 5850 5850 5850 5850 5850 5850 5850 5849 5849 5849 5848 5848 5847 5846 5846 5845 5844 5843 5842 5840 5839 5838 5836 5835 5833 5831
5843 5843 5843 5842 5842 5843 5843 5843 5844 5844 5845 5845 5846 5846 5847 5847 5848 5848 5848 5848 5848 5848 5848 5848 5847 5847 5847 5846 5845 5845 5844 5843 5842 5841 5840 5839 5837 5836 5834 5833 5831 5829 5827
5841 5840 5840 5840 5840 5840 5841 5841 5841 5842 5842 5843 5844 5844 5845 5845 5846 5846 5846 5846 5846 5846 5845 5845 5845 5844 5844 5843 5843 5842 5841 5840 5839 5838 5836 5835 5834 5832 5831 5829 5827 5825 5823
5838 5838 5838 5838 5837 5838 5838 5838 5839 5839 5839 5840 5841 5842 5842 5843 5843 5843 5843 5843 5843 5843 5842 5842 5842 5841 5841 5840 5839 5838 5837 5836 5835 5834 5832 5831 5830 5828 5827 5825 5823 5821 5818
5835 5835 5835 5835 5835 5835 5835 5835 5836 5836 5837 5837 5838 5839 5839 5840 5840 5840 5840 5840 5840 5839 5839 5839 5838 5838 5837 5837 5836 5835 5834 5832 5831 5830 5828 5827 5825 5824 5822 5820 5818 5815 5813
5832 5832 5831 5832 5832 5832 5832 5832 5833 5833 5834 5834 5835 5835 5836 5836 5836 5837 5837 5836 5836 5836 5835 5835 5835 5834 5833 5833 5832 5831 5829 5828 5827 5825 5824 5822 5821 5819 5817 5815 5813 5810 5808
5828 5828 5828 5828 5828 5828 5829 5829 5829 5830 5830 5831 5832 5832 5832 5832 5833 5833 5833 5832 5832 5832 5831 5831 5830 5830 5829 5828 5827 5826 5825 5823 5822 5820 5819 5817 5815 5813 5811 5809 5807 5805 5802
5824 5824 5824 5824 5824 5825 5825 5825 5826 5826 5827 5827 5827 5828 5828 5828 5828 5828 5828 5828 5828 5827 5827 5826 5826 5825 5825 5824 5823 5821 5820 5818 5817 5815 5813 5811 5810 5808 5805 5803 5801 5798 5796
5819 5819 5819 5820 5820 5820 5821 5821 5822 5822 5823 5823 5823 5823 5824 5824 5824 5824 5823 5823 5823 5823 5822 5822 5821 5820 5820 5819 5817 5816 5815 5813 5811 5810 5808 5806 5804 5802 5800 5797 5795 5792 5789
5814 5814 5815 5815 5816 5816 5816 5817 5818 5818 5818 5819 5819 5819 5819 5819 5819 5818 5818 5818 5818 5817 5817 5816 5816 5815 5814 5813 5812 5811 5809 5808 5806 5804 5802 5801 5799 5796 5794 5791 5789 5786 5783
5808 5809 5809 5810 5811 5811 5812 5812 5813 5813 5813 5814 5814 5814 5813 5813 5813 5813 5813 5812 5812 5812 5812 5811 5811 5810 5809 5808 5806 5805 5804 5802 5800 5799 5797 5795 5793 5790 5788 5785 5782 5779 5776
5802 5802 5803 5804 5804 5805 5806 5807 5807 5808 5808 5808 5808 5808 5808 5808 5808 5807 5807 5807 5806 5806 5806 5806 5805 5804 5803 5802 5800 5799 5798 5796 5794 5793 5791 5788 5786 5784 5781 5779 5776 5773 5769
5795 5795 5796 5797 5798 5798 5799 5800 5801 5801 5802 5802 5803 5802 5802 5802 5802 5802 5801 5801 5800 5800 5800 5799 5799 5798 5797 5796 5795 5793 5792 5790 5788 5786 5784 5782 5780 5777 5774 5772 5769 5766 5762
5788 5788 5789 5790 5791 5791 5792 5793 5794 5794 5795 5796 5796 5796 5796 5796 5796 5796 5795 5795 5795 5794 5794 5793 5793 5792 5791 5789 5788 5786 5785 5783 5782 5780 5777 5775 5773 5770 5767 5764 5761 5758 5754